Time,TemperatureF,DewpointF,PressureIn,WindDirection,WindDirectionDegrees,WindSpeedMPH,WindSpeedGustMPH,Humidity,HourlyPrecipIn,Conditions,Clouds,dailyrainin,SoftwareType,DateUTC
2013-03-05 00:00:00,30.6,21.6,29.99,West,279,3.0,11.0,69,0.00,,OVC,0.00,VWS V14.01,2013-03-05 05:00:00,
2013-03-05 00:05:00,30.6,21.6,30.00,WNW,293,8.0,10.0,69,0.00,,OVC,0.00,VWS V14.01,2013-03-05 05:05:00,
2013-03-05 00:10:00,30.6,21.6,29.99,WNW,283,1.0,10.0,69,0.00,,OVC,0.00,VWS V14.01,2013-03-05 05:10:00,
2013-03-05 00:15:00,30.6,21.6,29.99,WSW,257,1.0,10.0,69,0.00,,OVC,0.00,VWS V14.01,2013-03-05 05:15:00,
2013-03-05 00:20:00,30.6,21.6,30.00,NW,306,3.0,10.0,69,0.00,,OVC,0.00,VWS V14.01,2013-03-05 05:20:00,
2013-03-05 00:25:00,30.5,21.6,29.99,WNW,298,6.0,10.0,69,0.00,,OVC,0.00,VWS V14.01,2013-03-05 05:25:00,
2013-03-05 00:30:00,30.5,21.9,30.00,NW,321,1.0,5.0,70,0.00,,OVC,0.00,VWS V14.01,2013-03-05 05:30:00,
2013-03-05 00:35:00,30.5,21.9,30.00,NW,305,5.0,5.0,70,0.00,,OVC,0.00,VWS V14.01,2013-03-05 05:35:00,
2013-03-05 00:40:00,30.5,21.9,29.99,NW,315,5.0,15.0,70,0.00,,OVC,0.00,VWS V14.01,2013-03-05 05:40:00,
2013-03-05 00:45:00,30.5,21.9,30.00,NNW,333,6.0,15.0,70,0.00,,OVC,0.00,VWS V14.01,2013-03-05 05:45:00,
2013-03-05 00:50:00,30.4,21.8,30.00,WNW,298,2.0,15.0,70,0.00,,OVC,0.00,VWS V14.01,2013-03-05 05:50:00,
2013-03-05 00:55:00,30.4,21.8,29.99,NW,316,3.0,15.0,70,0.00,,OVC,0.00,VWS V14.01,2013-03-05 05:55:00,
2013-03-05 01:00:00,30.4,21.8,30.00,NW,313,0.0,2.0,70,0.00,,OVC,0.00,VWS V14.01,2013-03-05 06:00:00,
2013-03-05 01:05:00,30.4,21.8,30.00,WNW,300,3.0,8.0,70,0.00,,OVC,0.00,VWS V14.01,2013-03-05 06:05:00,
2013-03-05 01:10:00,30.3,21.7,30.00,WNW,302,0.0,8.0,70,0.00,,OVC,0.00,VWS V14.01,2013-03-05 06:10:00,
2013-03-05 01:15:00,30.3,21.7,30.00,WSW,251,2.0,8.0,70,0.00,,OVC,0.00,VWS V14.01,2013-03-05 06:15:00,
2013-03-05 01:20:00,30.3,21.7,30.00,NW,312,4.0,8.0,70,0.00,,OVC,0.00,VWS V14.01,2013-03-05 06:20:00,
2013-03-05 01:25:00,30.3,22.0,30.00,NW,316,3.0,8.0,71,0.00,,OVC,0.00,VWS V14.01,2013-03-05 06:25:00,
2013-03-05 01:30:00,30.2,21.9,30.00,WNW,286,4.0,5.0,71,0.00,,OVC,0.00,VWS V14.01,2013-03-05 06:30:00,
2013-03-05 01:35:00,30.2,21.6,30.00,WNW,292,3.0,7.0,70,0.00,,OVC,0.00,VWS V14.01,2013-03-05 06:35:00,
2013-03-05 01:40:00,30.2,21.9,30.00,WNW,293,0.0,7.0,71,0.00,,OVC,0.00,VWS V14.01,2013-03-05 06:40:00,
2013-03-05 01:45:00,30.2,21.9,30.00,SW,220,1.0,7.0,71,0.00,,OVC,0.00,VWS V14.01,2013-03-05 06:45:00,
2013-03-05 01:50:00,30.2,21.9,30.00,WNW,295,0.0,7.0,71,0.00,,OVC,0.00,VWS V14.01,2013-03-05 06:50:00,
2013-03-05 01:55:00,30.2,21.9,30.00,NW,307,1.0,7.0,71,0.00,,OVC,0.00,VWS V14.01,2013-03-05 06:55:00,
2013-03-05 02:00:00,30.2,21.9,30.00,WSW,254,0.0,4.0,71,0.00,,OVC,0.00,VWS V14.01,2013-03-05 07:00:00,
2013-03-05 02:05:00,30.1,21.9,30.00,WSW,244,3.0,4.0,71,0.00,,OVC,0.00,VWS V14.01,2013-03-05 07:05:00,
2013-03-05 02:10:00,30.1,21.9,30.00,SW,219,3.0,5.0,71,0.00,,OVC,0.00,VWS V14.01,2013-03-05 07:10:00,
2013-03-05 02:15:00,30.1,21.9,30.00,SW,231,2.0,5.0,71,0.00,,OVC,0.00,VWS V14.01,2013-03-05 07:15:00,
2013-03-05 02:20:00,30.1,21.9,30.00,West,271,0.0,5.0,71,0.00,,OVC,0.00,VWS V14.01,2013-03-05 07:20:00,
2013-03-05 02:25:00,30.1,21.9,30.00,WNW,283,0.0,6.0,71,0.00,,OVC,0.00,VWS V14.01,2013-03-05 07:25:00,
2013-03-05 02:30:00,30.1,21.9,30.00,WNW,297,2.0,4.0,71,0.00,,OVC,0.00,VWS V14.01,2013-03-05 07:30:00,
2013-03-05 02:35:00,30.1,21.9,30.00,WSW,253,2.0,6.0,71,0.00,,OVC,0.00,VWS V14.01,2013-03-05 07:35:00,
2013-03-05 02:40:00,30.1,22.2,30.00,WSW,252,3.0,6.0,72,0.00,,OVC,0.00,VWS V14.01,2013-03-05 07:40:00,
2013-03-05 02:45:00,30.1,21.9,30.00,WNW,292,3.0,6.0,71,0.00,,OVC,0.00,VWS V14.01,2013-03-05 07:45:00,
2013-03-05 02:50:00,30.0,22.1,30.00,West,270,0.0,6.0,72,0.00,,OVC,0.00,VWS V14.01,2013-03-05 07:50:00,
2013-03-05 02:55:00,30.0,22.1,30.00,SW,221,4.0,6.0,72,0.00,,OVC,0.00,VWS V14.01,2013-03-05 07:55:00,
2013-03-05 03:00:00,30.0,22.1,30.00,WNW,282,2.0,3.0,72,0.00,,OVC,0.00,VWS V14.01,2013-03-05 08:00:00,
2013-03-05 03:05:00,30.0,22.1,30.00,SSW,210,1.0,4.0,72,0.00,,OVC,0.00,VWS V14.01,2013-03-05 08:05:00,
2013-03-05 03:10:00,30.0,22.1,30.00,West,260,0.0,4.0,72,0.00,,OVC,0.00,VWS V14.01,2013-03-05 08:10:00,
2013-03-05 03:15:00,30.0,22.1,30.00,WNW,285,1.0,4.0,72,0.00,,OVC,0.00,VWS V14.01,2013-03-05 08:15:00,
2013-03-05 03:20:00,30.0,22.1,30.01,SW,218,2.0,6.0,72,0.00,,OVC,0.00,VWS V14.01,2013-03-05 08:20:00,
2013-03-05 03:25:00,30.0,22.1,30.01,West,267,0.0,6.0,72,0.00,,OVC,0.00,VWS V14.01,2013-03-05 08:25:00,
2013-03-05 03:30:00,30.0,22.1,30.01,WSW,237,0.0,0.0,72,0.00,,OVC,0.00,VWS V14.01,2013-03-05 08:30:00,
2013-03-05 03:35:00,29.9,22.0,30.01,SW,234,0.0,2.0,72,0.00,,OVC,0.00,VWS V14.01,2013-03-05 08:35:00,
2013-03-05 03:40:00,29.9,22.0,30.01,WSW,237,2.0,5.0,72,0.00,,OVC,0.00,VWS V14.01,2013-03-05 08:40:00,
2013-03-05 03:45:00,29.9,22.0,30.01,SW,231,3.0,5.0,72,0.00,,OVC,0.00,VWS V14.01,2013-03-05 08:45:00,
2013-03-05 03:50:00,29.9,22.0,30.01,SW,217,0.0,5.0,72,0.00,,OVC,0.00,VWS V14.01,2013-03-05 08:50:00,
2013-03-05 03:55:00,29.9,22.0,30.01,West,262,1.0,5.0,72,0.00,,OVC,0.00,VWS V14.01,2013-03-05 08:55:00,
2013-03-05 04:01:00,29.9,22.0,30.01,West,275,0.0,1.0,72,0.00,,OVC,0.00,VWS V14.01,2013-03-05 09:01:00,
2013-03-05 04:06:00,29.9,22.3,30.01,WSW,237,0.0,4.0,73,0.00,,OVC,0.00,VWS V14.01,2013-03-05 09:06:00,
2013-03-05 04:11:00,29.9,22.0,30.01,West,262,1.0,4.0,72,0.00,,OVC,0.00,VWS V14.01,2013-03-05 09:11:00,
2013-03-05 04:16:00,29.9,22.0,30.01,West,261,0.0,4.0,72,0.00,,OVC,0.00,VWS V14.01,2013-03-05 09:16:00,
2013-03-05 04:21:00,29.9,22.0,30.02,WSW,245,0.0,5.0,72,0.00,,OVC,0.00,VWS V14.01,2013-03-05 09:21:00,
2013-03-05 04:26:00,29.8,22.2,30.02,SSW,210,0.0,5.0,73,0.00,,OVC,0.00,VWS V14.01,2013-03-05 09:26:00,
2013-03-05 04:31:00,29.8,22.2,30.02,SW,224,0.0,3.0,73,0.00,,OVC,0.00,VWS V14.01,2013-03-05 09:31:00,
2013-03-05 04:36:00,29.8,22.2,30.02,West,268,1.0,4.0,73,0.00,,OVC,0.00,VWS V14.01,2013-03-05 09:36:00,
2013-03-05 04:41:00,29.8,22.2,30.02,West,268,1.0,4.0,73,0.00,,OVC,0.00,VWS V14.01,2013-03-05 09:41:00,
2013-03-05 04:46:00,29.7,22.1,30.02,West,268,0.0,4.0,73,0.00,,OVC,0.00,VWS V14.01,2013-03-05 09:46:00,
2013-03-05 04:51:00,29.7,22.1,30.02,West,268,0.0,4.0,73,0.00,,OVC,0.00,VWS V14.01,2013-03-05 09:51:00,
2013-03-05 04:56:00,29.7,22.1,30.02,SW,229,1.0,7.0,73,0.00,,OVC,0.00,VWS V14.01,2013-03-05 09:56:00,
2013-03-05 05:01:00,29.7,22.1,30.02,SW,232,0.0,0.0,73,0.00,,OVC,0.00,VWS V14.01,2013-03-05 10:01:00,
2013-03-05 05:06:00,29.7,22.1,30.02,WSW,242,0.0,4.0,73,0.00,,OVC,0.00,VWS V14.01,2013-03-05 10:06:00,
2013-03-05 05:11:00,29.7,22.1,30.02,WSW,248,1.0,4.0,73,0.00,,OVC,0.00,VWS V14.01,2013-03-05 10:11:00,
2013-03-05 05:16:00,29.7,22.1,30.02,WSW,239,0.0,4.0,73,0.00,,OVC,0.00,VWS V14.01,2013-03-05 10:16:00,
2013-03-05 05:21:00,29.7,22.1,30.03,SW,232,1.0,4.0,73,0.00,,OVC,0.00,VWS V14.01,2013-03-05 10:21:00,
2013-03-05 05:26:00,29.7,22.1,30.03,WNW,284,0.0,5.0,73,0.00,,OVC,0.00,VWS V14.01,2013-03-05 10:26:00,
2013-03-05 05:31:00,29.7,22.1,30.03,WNW,301,0.0,3.0,73,0.00,,OVC,0.00,VWS V14.01,2013-03-05 10:31:00,
2013-03-05 05:36:00,29.7,22.1,30.03,WNW,283,3.0,9.0,73,0.00,,OVC,0.00,VWS V14.01,2013-03-05 10:36:00,
2013-03-05 05:41:00,29.7,22.1,30.03,West,267,1.0,9.0,73,0.00,,OVC,0.00,VWS V14.01,2013-03-05 10:41:00,
2013-03-05 05:46:00,29.7,22.1,30.03,West,268,1.0,9.0,73,0.00,,OVC,0.00,VWS V14.01,2013-03-05 10:46:00,
2013-03-05 05:51:00,29.6,22.0,30.03,WSW,253,1.0,9.0,73,0.00,,OVC,0.00,VWS V14.01,2013-03-05 10:51:00,
2013-03-05 05:56:00,29.7,22.1,30.03,NW,316,0.0,9.0,73,0.00,,OVC,0.00,VWS V14.01,2013-03-05 10:56:00,
2013-03-05 06:01:00,29.6,22.0,30.03,West,276,0.0,3.0,73,0.00,,OVC,0.00,VWS V14.01,2013-03-05 11:01:00,
2013-03-05 06:05:00,29.6,22.0,30.03,NW,305,3.0,5.0,73,0.00,,OVC,0.00,VWS V14.01,2013-03-05 11:05:00,
2013-03-05 06:11:00,29.6,22.0,30.03,WSW,256,0.0,6.0,73,0.00,,OVC,0.00,VWS V14.01,2013-03-05 11:11:00,
2013-03-05 06:15:00,29.6,22.0,30.03,WSW,249,0.0,6.0,73,0.00,,OVC,0.00,VWS V14.01,2013-03-05 11:15:00,
2013-03-05 06:20:00,29.6,22.0,30.03,WNW,285,1.0,6.0,73,0.00,,OVC,0.00,VWS V14.01,2013-03-05 11:20:00,
2013-03-05 06:25:00,29.6,22.4,30.04,WNW,287,2.0,6.0,74,0.00,,OVC,0.00,VWS V14.01,2013-03-05 11:25:00,
2013-03-05 06:30:00,29.6,22.4,30.04,WNW,290,0.0,0.0,74,0.00,,OVC,0.00,VWS V14.01,2013-03-05 11:30:00,
2013-03-05 06:35:00,29.5,22.2,30.04,WNW,290,0.0,3.0,74,0.00,,OVC,0.00,VWS V14.01,2013-03-05 11:35:00,
2013-03-05 06:40:00,29.5,22.2,30.04,WNW,290,0.0,3.0,74,0.00,,OVC,0.00,VWS V14.01,2013-03-05 11:40:00,
2013-03-05 06:45:00,29.5,22.2,30.04,WNW,290,0.0,3.0,74,0.00,,OVC,0.00,VWS V14.01,2013-03-05 11:45:00,
2013-03-05 06:50:00,29.5,22.2,30.04,WNW,291,0.0,3.0,74,0.00,,OVC,0.00,VWS V14.01,2013-03-05 11:50:00,
2013-03-05 06:55:00,29.6,22.4,30.04,WNW,291,0.0,3.0,74,0.00,,OVC,0.00,VWS V14.01,2013-03-05 11:55:00,
2013-03-05 07:00:00,29.6,22.4,30.04,West,259,1.0,3.0,74,0.00,,OVC,0.00,VWS V14.01,2013-03-05 12:00:00,
2013-03-05 07:05:00,29.6,22.4,30.04,WSW,256,0.0,3.0,74,0.00,,OVC,0.00,VWS V14.01,2013-03-05 12:05:00,
2013-03-05 07:10:00,29.6,22.4,30.04,WSW,256,1.0,3.0,74,0.00,,OVC,0.00,VWS V14.01,2013-03-05 12:10:00,
2013-03-05 07:15:00,29.6,22.4,30.04,WSW,256,0.0,3.0,74,0.00,,OVC,0.00,VWS V14.01,2013-03-05 12:15:00,
2013-03-05 07:20:00,29.6,22.4,30.04,WSW,256,0.0,3.0,74,0.00,,OVC,0.00,VWS V14.01,2013-03-05 12:20:00,
2013-03-05 07:25:00,29.7,22.4,30.04,WSW,256,0.0,3.0,74,0.00,,OVC,0.00,VWS V14.01,2013-03-05 12:25:00,
2013-03-05 07:31:00,29.7,22.4,30.05,WSW,256,0.0,0.0,74,0.00,,OVC,0.00,VWS V14.01,2013-03-05 12:31:00,
2013-03-05 07:35:00,29.8,22.5,30.04,WSW,256,0.0,0.0,74,0.00,,OVC,0.00,VWS V14.01,2013-03-05 12:35:00,
2013-03-05 07:41:00,29.8,22.5,30.04,West,265,0.0,2.0,74,0.00,,OVC,0.00,VWS V14.01,2013-03-05 12:41:00,
2013-03-05 07:46:00,29.9,22.6,30.04,West,266,0.0,3.0,74,0.00,,OVC,0.00,VWS V14.01,2013-03-05 12:46:00,
2013-03-05 07:50:00,30.0,22.7,30.04,West,266,0.0,3.0,74,0.00,,OVC,0.00,VWS V14.01,2013-03-05 12:50:00,
2013-03-05 07:55:00,30.1,22.8,30.04,SW,219,0.0,3.0,74,0.00,,OVC,0.00,VWS V14.01,2013-03-05 12:55:00,
2013-03-05 08:01:00,30.1,22.8,30.05,WSW,237,0.0,1.0,74,0.00,,OVC,0.00,VWS V14.01,2013-03-05 13:01:00,
2013-03-05 08:06:00,30.2,22.9,30.04,NNW,329,0.0,5.0,74,0.00,,OVC,0.00,VWS V14.01,2013-03-05 13:06:00,
2013-03-05 08:11:00,30.4,23.1,30.05,NNW,329,0.0,5.0,74,0.00,,OVC,0.00,VWS V14.01,2013-03-05 13:11:00,
2013-03-05 08:16:00,30.6,23.0,30.05,NNW,329,2.0,5.0,73,0.00,,OVC,0.00,VWS V14.01,2013-03-05 13:16:00,
2013-03-05 08:21:00,30.6,23.0,30.05,NNW,329,1.0,5.0,73,0.00,,OVC,0.00,VWS V14.01,2013-03-05 13:21:00,
2013-03-05 08:26:00,30.8,23.2,30.05,NNW,329,0.0,5.0,73,0.00,,OVC,0.00,VWS V14.01,2013-03-05 13:26:00,
2013-03-05 08:31:00,31.0,23.4,30.05,NNW,330,0.0,2.0,73,0.00,,OVC,0.00,VWS V14.01,2013-03-05 13:31:00,
2013-03-05 08:36:00,31.1,23.1,30.05,NNW,328,3.0,3.0,72,0.00,,OVC,0.00,VWS V14.01,2013-03-05 13:36:00,
2013-03-05 08:41:00,31.1,23.1,30.05,NNW,346,0.0,4.0,72,0.00,,OVC,0.00,VWS V14.01,2013-03-05 13:41:00,
2013-03-05 08:46:00,31.2,22.9,30.05,WNW,301,4.0,5.0,71,0.00,,OVC,0.00,VWS V14.01,2013-03-05 13:46:00,
2013-03-05 08:51:00,31.3,23.0,30.05,NNW,334,1.0,6.0,71,0.00,,OVC,0.00,VWS V14.01,2013-03-05 13:51:00,
2013-03-05 08:56:00,31.3,22.7,30.05,NW,319,1.0,7.0,70,0.00,,OVC,0.00,VWS V14.01,2013-03-05 13:56:00,
2013-03-05 09:01:00,31.3,23.0,30.04,NNW,331,0.0,4.0,71,0.00,,OVC,0.00,VWS V14.01,2013-03-05 14:01:00,
2013-03-05 09:06:00,31.4,23.1,30.04,North,2,3.0,7.0,71,0.00,,OVC,0.00,VWS V14.01,2013-03-05 14:06:00,
2013-03-05 09:11:00,31.5,22.9,30.04,NNE,19,1.0,8.0,70,0.00,,OVC,0.00,VWS V14.01,2013-03-05 14:11:00,
2013-03-05 09:16:00,31.7,23.0,30.04,NNE,30,3.0,8.0,70,0.00,,OVC,0.00,VWS V14.01,2013-03-05 14:16:00,
2013-03-05 09:21:00,31.8,23.1,30.05,NNW,340,2.0,8.0,70,0.00,,OVC,0.00,VWS V14.01,2013-03-05 14:21:00,
2013-03-05 09:26:00,31.8,22.8,30.04,North,353,1.0,8.0,69,0.00,,OVC,0.00,VWS V14.01,2013-03-05 14:26:00,
2013-03-05 09:31:00,31.7,22.7,30.05,North,2,3.0,8.0,69,0.00,,OVC,0.00,VWS V14.01,2013-03-05 14:31:00,
2013-03-05 09:36:00,31.7,23.0,30.05,NW,322,3.0,8.0,70,0.00,,OVC,0.00,VWS V14.01,2013-03-05 14:36:00,
2013-03-05 09:41:00,31.7,22.7,30.04,West,280,6.0,8.0,69,0.00,,OVC,0.00,VWS V14.01,2013-03-05 14:41:00,
2013-03-05 09:46:00,31.7,22.7,30.04,NW,307,4.0,8.0,69,0.00,,OVC,0.00,VWS V14.01,2013-03-05 14:46:00,
2013-03-05 09:51:00,31.8,23.1,30.04,NW,321,2.0,8.0,70,0.00,,OVC,0.00,VWS V14.01,2013-03-05 14:51:00,
2013-03-05 09:56:00,32.0,23.3,30.04,North,352,2.0,8.0,70,0.00,,OVC,0.00,VWS V14.01,2013-03-05 14:56:00,
2013-03-05 10:01:00,32.2,23.2,30.04,North,359,3.0,5.0,69,0.00,,OVC,0.00,VWS V14.01,2013-03-05 15:01:00,
2013-03-05 10:06:00,32.3,23.3,30.04,NNW,340,4.0,6.0,69,0.00,,OVC,0.00,VWS V14.01,2013-03-05 15:06:00,
2013-03-05 10:11:00,32.3,23.3,30.04,WNW,294,0.0,6.0,69,0.00,,OVC,0.00,VWS V14.01,2013-03-05 15:11:00,
2013-03-05 10:16:00,32.6,23.6,30.04,North,352,2.0,6.0,69,0.00,,OVC,0.00,VWS V14.01,2013-03-05 15:16:00,
2013-03-05 10:21:00,32.8,23.4,30.03,NNW,329,2.0,6.0,68,0.00,,OVC,0.00,VWS V14.01,2013-03-05 15:21:00,
2013-03-05 10:26:00,33.0,24.0,30.03,NNE,16,3.0,6.0,69,0.00,,OVC,0.00,VWS V14.01,2013-03-05 15:26:00,
2013-03-05 10:31:00,33.2,23.8,30.03,NW,313,3.0,6.0,68,0.00,,OVC,0.00,VWS V14.01,2013-03-05 15:31:00,
2013-03-05 10:36:00,33.3,23.9,30.03,NW,319,0.0,6.0,68,0.00,,OVC,0.00,VWS V14.01,2013-03-05 15:36:00,
2013-03-05 10:41:00,33.7,24.3,30.03,ENE,75,2.0,6.0,68,0.00,,OVC,0.00,VWS V14.01,2013-03-05 15:41:00,
2013-03-05 10:46:00,34.1,24.3,30.03,NNW,339,2.0,7.0,67,0.00,,OVC,0.00,VWS V14.01,2013-03-05 15:46:00,
2013-03-05 10:51:00,34.3,24.5,30.02,NNE,23,0.0,7.0,67,0.00,,OVC,0.00,VWS V14.01,2013-03-05 15:51:00,
2013-03-05 10:56:00,34.7,24.5,30.02,NNE,29,4.0,7.0,66,0.00,,OVC,0.00,VWS V14.01,2013-03-05 15:56:00,
2013-03-05 11:01:00,34.8,25.0,30.02,NNE,15,2.0,3.0,67,0.00,,OVC,0.00,VWS V14.01,2013-03-05 16:01:00,
2013-03-05 11:06:00,35.0,24.4,30.02,NW,307,4.0,5.0,65,0.00,,OVC,0.00,VWS V14.01,2013-03-05 16:06:00,
2013-03-05 11:11:00,35.1,24.5,30.02,WNW,298,2.0,5.0,65,0.00,,OVC,0.00,VWS V14.01,2013-03-05 16:11:00,
2013-03-05 11:16:00,35.4,24.8,30.02,North,0,3.0,6.0,65,0.00,,OVC,0.00,VWS V14.01,2013-03-05 16:16:00,
2013-03-05 11:21:00,35.3,24.7,30.02,North,355,0.0,7.0,65,0.00,,OVC,0.00,VWS V14.01,2013-03-05 16:21:00,
2013-03-05 11:26:00,35.4,24.8,30.02,WNW,295,0.0,7.0,65,0.00,,OVC,0.00,VWS V14.01,2013-03-05 16:26:00,
2013-03-05 11:31:00,35.9,24.9,30.02,North,4,2.0,5.0,64,0.00,,OVC,0.00,VWS V14.01,2013-03-05 16:31:00,
2013-03-05 11:36:00,36.1,25.1,30.02,North,5,5.0,6.0,64,0.00,,OVC,0.00,VWS V14.01,2013-03-05 16:36:00,
2013-03-05 11:41:00,36.0,25.0,30.02,North,355,5.0,6.0,64,0.00,,OVC,0.00,VWS V14.01,2013-03-05 16:41:00,
2013-03-05 11:46:00,35.8,24.8,30.02,North,356,4.0,6.0,64,0.00,,OVC,0.00,VWS V14.01,2013-03-05 16:46:00,
2013-03-05 11:51:00,35.9,25.3,30.02,North,356,0.0,6.0,65,0.00,,OVC,0.00,VWS V14.01,2013-03-05 16:51:00,
2013-03-05 11:56:00,36.3,25.3,30.02,NW,306,5.0,6.0,64,0.00,,OVC,0.00,VWS V14.01,2013-03-05 16:56:00,
2013-03-05 12:01:00,36.8,25.8,30.02,North,3,3.0,5.0,64,0.00,,OVC,0.00,VWS V14.01,2013-03-05 17:01:00,
2013-03-05 12:06:00,36.7,25.3,30.02,NNW,333,3.0,8.0,63,0.00,,OVC,0.00,VWS V14.01,2013-03-05 17:06:00,
2013-03-05 12:11:00,36.7,25.7,30.01,North,353,3.0,8.0,64,0.00,,OVC,0.00,VWS V14.01,2013-03-05 17:11:00,
2013-03-05 12:16:00,36.9,26.2,30.01,ESE,110,4.0,8.0,65,0.00,,OVC,0.00,VWS V14.01,2013-03-05 17:16:00,
2013-03-05 12:21:00,37.6,26.2,30.01,North,9,2.0,8.0,63,0.00,,OVC,0.00,VWS V14.01,2013-03-05 17:21:00,
2013-03-05 12:26:00,38.0,26.5,30.02,North,0,2.0,8.0,63,0.00,,OVC,0.00,VWS V14.01,2013-03-05 17:26:00,
2013-03-05 12:31:00,38.1,26.6,30.02,North,0,0.0,0.0,63,0.00,,OVC,0.00,VWS V14.01,2013-03-05 17:31:00,
2013-03-05 12:36:00,38.5,27.0,30.02,ESE,108,0.0,3.0,63,0.00,,OVC,0.00,VWS V14.01,2013-03-05 17:36:00,
2013-03-05 12:41:00,39.1,27.2,30.02,SE,139,0.0,4.0,62,0.00,,OVC,0.00,VWS V14.01,2013-03-05 17:41:00,
2013-03-05 12:46:00,39.8,27.9,30.01,SE,139,3.0,4.0,62,0.00,,OVC,0.00,VWS V14.01,2013-03-05 17:46:00,
2013-03-05 12:51:00,40.3,27.5,30.01,SE,142,1.0,5.0,60,0.00,,OVC,0.00,VWS V14.01,2013-03-05 17:51:00,
2013-03-05 12:56:00,40.8,28.0,30.01,SE,142,2.0,5.0,60,0.00,,OVC,0.00,VWS V14.01,2013-03-05 17:56:00,
2013-03-05 13:01:00,41.6,28.8,30.00,ESE,111,0.0,6.0,60,0.00,,OVC,0.00,VWS V14.01,2013-03-05 18:01:00,
2013-03-05 13:06:00,42.4,28.7,30.00,ESE,103,1.0,6.0,58,0.00,,OVC,0.00,VWS V14.01,2013-03-05 18:06:00,
2013-03-05 13:11:00,43.1,28.5,30.00,NE,40,0.0,6.0,56,0.00,,OVC,0.00,VWS V14.01,2013-03-05 18:11:00,
2013-03-05 13:16:00,43.3,28.7,30.00,NW,319,2.0,6.0,56,0.00,,OVC,0.00,VWS V14.01,2013-03-05 18:16:00,
2013-03-05 13:21:00,43.3,29.1,29.99,South,175,1.0,6.0,57,0.00,,OVC,0.00,VWS V14.01,2013-03-05 18:21:00,
2013-03-05 13:26:00,43.8,28.7,29.99,ENE,58,0.0,7.0,55,0.00,,OVC,0.00,VWS V14.01,2013-03-05 18:26:00,
2013-03-05 13:31:00,43.9,28.4,29.99,NNW,331,0.0,3.0,54,0.00,,OVC,0.00,VWS V14.01,2013-03-05 18:31:00,
2013-03-05 13:36:00,43.8,29.1,29.99,NNW,347,0.0,5.0,56,0.00,,OVC,0.00,VWS V14.01,2013-03-05 18:36:00,
2013-03-05 13:41:00,44.4,30.1,30.00,SE,138,2.0,5.0,57,0.00,,OVC,0.00,VWS V14.01,2013-03-05 18:41:00,
2013-03-05 13:46:00,44.5,28.9,29.99,NW,324,2.0,6.0,54,0.00,,OVC,0.00,VWS V14.01,2013-03-05 18:46:00,
2013-03-05 13:51:00,44.0,28.9,29.99,WNW,292,0.0,6.0,55,0.00,,OVC,0.00,VWS V14.01,2013-03-05 18:51:00,
2013-03-05 13:56:00,44.6,29.0,29.99,North,2,3.0,6.0,54,0.00,,OVC,0.00,VWS V14.01,2013-03-05 18:56:00,
2013-03-05 14:01:00,44.9,29.3,29.99,ESE,109,0.0,1.0,54,0.00,,OVC,0.00,VWS V14.01,2013-03-05 19:01:00,
2013-03-05 14:06:00,45.4,29.3,29.98,NW,319,1.0,5.0,53,0.00,,OVC,0.00,VWS V14.01,2013-03-05 19:06:00,
2013-03-05 14:11:00,45.2,29.6,29.98,ESE,117,4.0,5.0,54,0.00,,OVC,0.00,VWS V14.01,2013-03-05 19:11:00,
2013-03-05 14:16:00,45.7,30.5,29.98,ESE,106,6.0,6.0,55,0.00,,OVC,0.00,VWS V14.01,2013-03-05 19:16:00,
2013-03-05 14:21:00,46.4,30.2,29.98,ESE,104,0.0,7.0,53,0.00,,OVC,0.00,VWS V14.01,2013-03-05 19:21:00,
2013-03-05 14:26:00,46.9,31.1,29.97,ESE,112,0.0,7.0,54,0.00,,OVC,0.00,VWS V14.01,2013-03-05 19:26:00,
2013-03-05 14:31:00,47.6,31.3,29.97,SE,125,3.0,5.0,53,0.00,,OVC,0.00,VWS V14.01,2013-03-05 19:31:00,
2013-03-05 14:36:00,47.9,31.1,29.97,ENE,73,1.0,7.0,52,0.00,,OVC,0.00,VWS V14.01,2013-03-05 19:36:00,
2013-03-05 14:41:00,48.2,30.9,29.97,ESE,109,3.0,7.0,51,0.00,,OVC,0.00,VWS V14.01,2013-03-05 19:41:00,
2013-03-05 14:46:00,48.5,30.7,29.97,ESE,109,3.0,7.0,50,0.00,,OVC,0.00,VWS V14.01,2013-03-05 19:46:00,
2013-03-05 14:51:00,48.6,30.8,29.97,SE,126,5.0,7.0,50,0.00,,OVC,0.00,VWS V14.01,2013-03-05 19:51:00,
2013-03-05 14:56:00,48.6,30.8,29.97,SE,134,3.0,7.0,50,0.00,,OVC,0.00,VWS V14.01,2013-03-05 19:56:00,
2013-03-05 15:01:00,48.7,30.9,29.96,ESE,117,0.0,4.0,50,0.00,,OVC,0.00,VWS V14.01,2013-03-05 20:01:00,
2013-03-05 15:06:00,48.5,30.2,29.96,NNE,16,0.0,5.0,49,0.00,,OVC,0.00,VWS V14.01,2013-03-05 20:06:00,
2013-03-05 15:11:00,48.2,30.5,29.96,NNE,28,0.0,5.0,50,0.00,,OVC,0.00,VWS V14.01,2013-03-05 20:11:00,
2013-03-05 15:16:00,47.9,30.2,29.96,ESE,122,4.0,5.0,50,0.00,,OVC,0.00,VWS V14.01,2013-03-05 20:16:00,
2013-03-05 15:21:00,47.8,29.6,29.95,ENE,61,0.0,6.0,49,0.00,,OVC,0.00,VWS V14.01,2013-03-05 20:21:00,
2013-03-05 15:26:00,48.1,30.4,29.95,ESE,120,2.0,6.0,50,0.00,,OVC,0.00,VWS V14.01,2013-03-05 20:26:00,
2013-03-05 15:31:00,48.5,30.7,29.95,ENE,77,0.0,3.0,50,0.00,,OVC,0.00,VWS V14.01,2013-03-05 20:31:00,
2013-03-05 15:36:00,48.2,29.5,29.95,NNW,344,3.0,6.0,48,0.00,,OVC,0.00,VWS V14.01,2013-03-05 20:36:00,
2013-03-05 15:41:00,46.9,29.2,29.95,North,356,6.0,7.0,50,0.00,,OVC,0.00,VWS V14.01,2013-03-05 20:41:00,
2013-03-05 15:46:00,46.2,29.1,29.95,NNE,23,9.0,9.0,51,0.00,,OVC,0.00,VWS V14.01,2013-03-05 20:46:00,
2013-03-05 15:51:00,45.9,28.8,29.94,North,4,0.0,10.0,51,0.00,,OVC,0.00,VWS V14.01,2013-03-05 20:51:00,
2013-03-05 15:56:00,46.0,28.9,29.94,North,352,0.0,10.0,51,0.00,,OVC,0.00,VWS V14.01,2013-03-05 20:56:00,
2013-03-05 16:01:00,46.0,28.4,29.94,North,0,5.0,8.0,50,0.00,,OVC,0.00,VWS V14.01,2013-03-05 21:01:00,
2013-03-05 16:06:00,45.7,28.1,29.94,NNE,26,8.0,8.0,50,0.00,,OVC,0.00,VWS V14.01,2013-03-05 21:06:00,
2013-03-05 16:11:00,45.6,28.5,29.93,NE,55,0.0,8.0,51,0.00,,OVC,0.00,VWS V14.01,2013-03-05 21:11:00,
2013-03-05 16:16:00,45.7,28.1,29.93,NNE,19,5.0,8.0,50,0.00,,OVC,0.00,VWS V14.01,2013-03-05 21:16:00,
2013-03-05 16:21:00,45.5,28.0,29.93,NNE,27,1.0,8.0,50,0.00,,OVC,0.00,VWS V14.01,2013-03-05 21:21:00,
2013-03-05 16:26:00,45.3,28.2,29.93,NNE,13,1.0,10.0,51,0.00,,OVC,0.00,VWS V14.01,2013-03-05 21:26:00,
2013-03-05 16:31:00,45.5,28.4,29.93,NNE,18,0.0,4.0,51,0.00,,OVC,0.00,VWS V14.01,2013-03-05 21:31:00,
2013-03-05 16:36:00,45.6,28.0,29.93,NE,37,4.0,10.0,50,0.00,,OVC,0.00,VWS V14.01,2013-03-05 21:36:00,
2013-03-05 16:41:00,45.4,27.9,29.93,NNE,32,5.0,10.0,50,0.00,,OVC,0.00,VWS V14.01,2013-03-05 21:41:00,
2013-03-05 16:46:00,45.2,27.7,29.93,NNE,31,3.0,10.0,50,0.00,,OVC,0.00,VWS V14.01,2013-03-05 21:46:00,
2013-03-05 16:51:00,45.2,27.7,29.93,East,92,0.0,10.0,50,0.00,,OVC,0.00,VWS V14.01,2013-03-05 21:51:00,
2013-03-05 16:56:00,45.1,27.6,29.93,NNE,17,3.0,10.0,50,0.00,,OVC,0.00,VWS V14.01,2013-03-05 21:56:00,
2013-03-05 17:01:00,44.7,27.2,29.93,NNE,24,4.0,8.0,50,0.00,,OVC,0.00,VWS V14.01,2013-03-05 22:01:00,
2013-03-05 17:06:00,44.6,27.1,29.93,NNE,17,5.0,8.0,50,0.00,,OVC,0.00,VWS V14.01,2013-03-05 22:06:00,
2013-03-05 17:11:00,44.2,27.2,29.93,NNE,13,4.0,10.0,51,0.00,,OVC,0.00,VWS V14.01,2013-03-05 22:11:00,
2013-03-05 17:16:00,44.0,27.0,29.93,NNE,27,3.0,10.0,51,0.00,,OVC,0.00,VWS V14.01,2013-03-05 22:16:00,
2013-03-05 17:21:00,44.1,27.1,29.93,North,0,2.0,10.0,51,0.00,,OVC,0.00,VWS V14.01,2013-03-05 22:21:00,
2013-03-05 17:26:00,43.9,27.0,29.93,NE,36,3.0,10.0,51,0.00,,OVC,0.00,VWS V14.01,2013-03-05 22:26:00,
2013-03-05 17:31:00,43.7,27.2,29.93,ENE,59,4.0,6.0,52,0.00,,OVC,0.00,VWS V14.01,2013-03-05 22:31:00,
2013-03-05 17:36:00,43.3,26.9,29.93,NNE,19,2.0,7.0,52,0.00,,OVC,0.00,VWS V14.01,2013-03-05 22:36:00,
2013-03-05 17:41:00,42.9,27.0,29.93,NNE,15,5.0,7.0,53,0.00,,OVC,0.00,VWS V14.01,2013-03-05 22:41:00,
2013-03-05 17:46:00,42.4,27.0,29.93,North,0,2.0,7.0,54,0.00,,OVC,0.00,VWS V14.01,2013-03-05 22:46:00,
2013-03-05 17:51:00,41.9,26.5,29.94,NNE,22,1.0,7.0,54,0.00,,OVC,0.00,VWS V14.01,2013-03-05 22:51:00,
2013-03-05 17:56:00,41.3,26.4,29.94,North,2,1.0,7.0,55,0.00,,OVC,0.00,VWS V14.01,2013-03-05 22:56:00,
2013-03-05 18:01:00,40.7,26.2,29.94,NNE,13,3.0,4.0,56,0.00,,OVC,0.00,VWS V14.01,2013-03-05 23:01:00,
2013-03-05 18:06:00,40.2,26.2,29.94,North,4,0.0,5.0,57,0.00,,OVC,0.00,VWS V14.01,2013-03-05 23:06:00,
2013-03-05 18:11:00,39.7,25.7,29.94,NNE,29,0.0,6.0,57,0.00,,OVC,0.00,VWS V14.01,2013-03-05 23:11:00,
2013-03-05 18:16:00,39.3,25.8,29.94,North,9,0.0,6.0,58,0.00,,OVC,0.00,VWS V14.01,2013-03-05 23:16:00,
2013-03-05 18:21:00,38.9,25.4,29.95,North,9,0.0,6.0,58,0.00,,OVC,0.00,VWS V14.01,2013-03-05 23:21:00,
2013-03-05 18:26:00,38.5,25.0,29.95,North,9,0.0,6.0,58,0.00,,OVC,0.00,VWS V14.01,2013-03-05 23:26:00,
2013-03-05 18:31:00,38.0,25.0,29.95,North,9,0.0,0.0,59,0.00,,OVC,0.00,VWS V14.01,2013-03-05 23:31:00,
2013-03-05 18:36:00,37.5,25.3,29.95,North,9,0.0,0.0,61,0.00,,OVC,0.00,VWS V14.01,2013-03-05 23:36:00,
2013-03-05 18:41:00,36.8,25.0,29.95,North,9,0.0,0.0,62,0.00,,OVC,0.00,VWS V14.01,2013-03-05 23:41:00,
2013-03-05 18:46:00,36.2,24.8,29.95,North,9,0.0,0.0,63,0.00,,OVC,0.00,VWS V14.01,2013-03-05 23:46:00,
2013-03-05 18:51:00,35.6,24.6,29.94,North,9,0.0,0.0,64,0.00,,OVC,0.00,VWS V14.01,2013-03-05 23:51:00,
2013-03-05 18:56:00,35.0,24.4,29.94,North,9,1.0,2.0,65,0.00,,OVC,0.00,VWS V14.01,2013-03-05 23:56:00,
2013-03-05 19:01:00,34.5,24.7,29.94,North,9,0.0,2.0,67,0.00,,OVC,0.00,VWS V14.01,2013-03-06 00:01:00,
2013-03-05 19:06:00,34.0,24.2,29.94,North,9,0.0,2.0,67,0.00,,OVC,0.00,VWS V14.01,2013-03-06 00:06:00,
2013-03-05 19:11:00,33.5,24.1,29.94,North,9,0.0,2.0,68,0.00,,OVC,0.00,VWS V14.01,2013-03-06 00:11:00,
2013-03-05 19:16:00,33.1,24.0,29.94,North,9,0.0,2.0,69,0.00,,OVC,0.00,VWS V14.01,2013-03-06 00:16:00,
2013-03-05 19:21:00,32.5,23.1,29.94,North,9,0.0,2.0,68,0.00,,OVC,0.00,VWS V14.01,2013-03-06 00:21:00,
2013-03-05 19:26:00,32.1,23.1,29.94,North,9,0.0,2.0,69,0.00,,OVC,0.00,VWS V14.01,2013-03-06 00:26:00,
2013-03-05 19:31:00,31.8,23.1,29.94,North,9,0.0,0.0,70,0.00,,OVC,0.00,VWS V14.01,2013-03-06 00:31:00,
2013-03-05 19:36:00,31.5,23.2,29.93,North,9,0.0,0.0,71,0.00,,OVC,0.00,VWS V14.01,2013-03-06 00:36:00,
2013-03-05 19:41:00,31.1,23.1,29.93,North,9,0.0,0.0,72,0.00,,OVC,0.00,VWS V14.01,2013-03-06 00:41:00,
2013-03-05 19:46:00,30.8,22.9,29.92,North,9,0.0,0.0,72,0.00,,OVC,0.00,VWS V14.01,2013-03-06 00:46:00,
2013-03-05 19:51:00,30.5,22.9,29.92,North,9,0.0,0.0,73,0.00,,CLR,0.00,VWS V14.01,2013-03-06 00:51:00,
2013-03-05 19:56:00,30.2,22.9,29.92,North,9,0.0,0.0,74,0.00,,CLR,0.00,VWS V14.01,2013-03-06 00:56:00,
2013-03-05 20:01:00,29.9,22.3,29.92,North,9,0.0,0.0,73,0.00,,CLR,0.00,VWS V14.01,2013-03-06 01:01:00,
2013-03-05 20:06:00,29.6,22.4,29.92,North,9,0.0,0.0,74,0.00,,CLR,0.00,VWS V14.01,2013-03-06 01:06:00,
2013-03-05 20:11:00,29.4,22.8,29.93,North,9,0.0,0.0,76,0.00,,CLR,0.00,VWS V14.01,2013-03-06 01:11:00,
2013-03-05 20:16:00,29.2,22.6,29.93,North,9,0.0,0.0,76,0.00,,CLR,0.00,VWS V14.01,2013-03-06 01:16:00,
2013-03-05 20:21:00,29.0,22.4,29.93,North,9,0.0,0.0,76,0.00,,CLR,0.00,VWS V14.01,2013-03-06 01:21:00,
2013-03-05 20:26:00,28.8,22.2,29.93,North,9,0.0,0.0,76,0.00,,CLR,0.00,VWS V14.01,2013-03-06 01:26:00,
2013-03-05 20:31:00,28.5,21.9,29.93,North,9,0.0,0.0,76,0.00,,CLR,0.00,VWS V14.01,2013-03-06 01:31:00,
2013-03-05 20:36:00,28.3,21.7,29.93,North,9,0.0,0.0,76,0.00,,CLR,0.00,VWS V14.01,2013-03-06 01:36:00,
2013-03-05 20:41:00,28.1,21.8,29.93,North,9,0.0,0.0,77,0.00,,CLR,0.00,VWS V14.01,2013-03-06 01:41:00,
2013-03-05 20:46:00,28.1,21.8,29.93,North,9,0.0,0.0,77,0.00,,CLR,0.00,VWS V14.01,2013-03-06 01:46:00,
2013-03-05 20:51:00,28.1,22.1,29.93,North,9,0.0,0.0,78,0.00,,CLR,0.00,VWS V14.01,2013-03-06 01:51:00,
2013-03-05 20:57:00,28.1,22.4,29.93,North,9,0.0,0.0,79,0.00,,CLR,0.00,VWS V14.01,2013-03-06 01:57:00,
2013-03-05 21:01:00,28.0,22.3,29.93,North,9,0.0,0.0,79,0.00,,CLR,0.00,VWS V14.01,2013-03-06 02:01:00,
2013-03-05 21:07:00,28.0,22.3,29.93,North,9,0.0,0.0,79,0.00,,CLR,0.00,VWS V14.01,2013-03-06 02:07:00,
2013-03-05 21:12:00,28.1,22.4,29.93,North,9,0.0,0.0,79,0.00,,CLR,0.00,VWS V14.01,2013-03-06 02:12:00,
2013-03-05 21:17:00,28.0,22.3,29.93,North,9,0.0,0.0,79,0.00,,CLR,0.00,VWS V14.01,2013-03-06 02:17:00,
2013-03-05 21:22:00,27.9,22.2,29.93,North,9,0.0,0.0,79,0.00,,CLR,0.00,VWS V14.01,2013-03-06 02:22:00,
2013-03-05 21:26:00,27.8,22.1,29.92,North,9,0.0,0.0,79,0.00,,CLR,0.00,VWS V14.01,2013-03-06 02:26:00,
2013-03-05 21:31:00,27.7,22.0,29.92,North,9,0.0,0.0,79,0.00,,CLR,0.00,VWS V14.01,2013-03-06 02:31:00,
2013-03-05 21:37:00,27.6,22.0,29.92,North,9,0.0,0.0,79,0.00,,CLR,0.00,VWS V14.01,2013-03-06 02:37:00,
2013-03-05 21:41:00,27.5,21.9,29.92,North,9,0.0,0.0,79,0.00,,CLR,0.00,VWS V14.01,2013-03-06 02:41:00,
2013-03-05 21:47:00,27.6,22.2,29.92,North,9,0.0,0.0,80,0.00,,CLR,0.00,VWS V14.01,2013-03-06 02:47:00,
2013-03-05 21:52:00,27.6,22.2,29.92,North,9,0.0,0.0,80,0.00,,CLR,0.00,VWS V14.01,2013-03-06 02:52:00,
2013-03-05 21:58:00,27.6,22.2,29.91,North,9,0.0,0.0,80,0.00,,CLR,0.00,VWS V14.01,2013-03-06 02:58:00,
2013-03-05 22:03:00,27.7,22.4,29.91,North,9,0.0,0.0,80,0.00,,CLR,0.00,VWS V14.01,2013-03-06 03:03:00,
2013-03-05 22:08:00,27.8,22.7,29.91,North,9,0.0,0.0,81,0.00,,CLR,0.00,VWS V14.01,2013-03-06 03:08:00,
2013-03-05 22:13:00,28.0,22.9,29.91,North,9,0.0,0.0,81,0.00,,CLR,0.00,VWS V14.01,2013-03-06 03:13:00,
2013-03-05 22:18:00,28.2,23.1,29.91,North,9,0.0,0.0,81,0.00,,CLR,0.00,VWS V14.01,2013-03-06 03:18:00,
2013-03-05 22:23:00,28.4,23.3,29.91,North,9,0.0,0.0,81,0.00,,CLR,0.00,VWS V14.01,2013-03-06 03:23:00,
2013-03-05 22:28:00,28.5,23.4,29.91,North,9,0.0,0.0,81,0.00,,CLR,0.00,VWS V14.01,2013-03-06 03:28:00,
2013-03-05 22:33:00,28.8,23.7,29.90,North,5,2.0,4.0,81,0.00,,CLR,0.00,VWS V14.01,2013-03-06 03:33:00,
2013-03-05 22:38:00,29.4,24.6,29.90,NNE,13,3.0,5.0,82,0.00,,CLR,0.00,VWS V14.01,2013-03-06 03:38:00,
2013-03-05 22:43:00,30.2,25.1,29.90,NE,50,1.0,5.0,81,0.00,,CLR,0.00,VWS V14.01,2013-03-06 03:43:00,
2013-03-05 22:48:00,30.6,25.2,29.90,NE,49,2.0,5.0,80,0.00,,CLR,0.00,VWS V14.01,2013-03-06 03:48:00,
2013-03-05 22:53:00,30.9,25.2,29.89,NNE,22,3.0,5.0,79,0.00,,CLR,0.00,VWS V14.01,2013-03-06 03:53:00,
2013-03-05 22:58:00,31.1,25.4,29.89,NE,47,0.0,6.0,79,0.00,,CLR,0.00,VWS V14.01,2013-03-06 03:58:00,
2013-03-05 23:03:00,31.3,25.2,29.89,NE,52,2.0,4.0,78,0.00,,FEW050,0.00,VWS V14.01,2013-03-06 04:03:00,
2013-03-05 23:08:00,31.4,25.4,29.89,NNE,21,0.0,5.0,78,0.00,,FEW050,0.00,VWS V14.01,2013-03-06 04:08:00,
2013-03-05 23:13:00,31.6,25.5,29.89,ENE,69,0.0,5.0,78,0.00,,FEW050,0.00,VWS V14.01,2013-03-06 04:13:00,
2013-03-05 23:18:00,31.6,25.2,29.89,NE,53,0.0,5.0,77,0.00,,FEW050,0.00,VWS V14.01,2013-03-06 04:18:00,
2013-03-05 23:23:00,31.7,25.6,29.89,NE,38,0.0,5.0,78,0.00,,FEW050,0.00,VWS V14.01,2013-03-06 04:23:00,
2013-03-05 23:28:00,31.7,25.3,29.89,NNE,31,0.0,5.0,77,0.00,,FEW050,0.00,VWS V14.01,2013-03-06 04:28:00,
2013-03-05 23:33:00,31.7,25.3,29.89,NE,55,0.0,2.0,77,0.00,,FEW050,0.00,VWS V14.01,2013-03-06 04:33:00,
2013-03-05 23:38:00,31.8,25.4,29.89,North,4,2.0,5.0,77,0.00,,FEW050,0.00,VWS V14.01,2013-03-06 04:38:00,
2013-03-05 23:43:00,32.0,25.6,29.89,NNE,30,0.0,5.0,77,0.00,,FEW050,0.00,VWS V14.01,2013-03-06 04:43:00,
2013-03-05 23:48:00,32.2,25.5,29.89,NNE,33,0.0,5.0,76,0.00,,FEW050,0.00,VWS V14.01,2013-03-06 04:48:00,
2013-03-05 23:53:00,32.4,25.7,29.89,NNE,24,2.0,5.0,76,0.00,,FEW050,0.00,VWS V14.01,2013-03-06 04:53:00,
2013-03-05 23:58:00,32.6,25.9,29.89,NE,53,2.0,5.0,76,0.00,,FEW050,0.00,VWS V14.01,2013-03-06 04:58:00,